Weather History for KNYL - January, 2012

Change the Weather History Date:

Tuesday, January 24, 2012

  Actual Average Record
Temperature  
Mean Temperature 60 °F 59 °F  
Max Temperature 70 °F 71 °F 84 °F (1953)
Min Temperature 50 °F 48 °F 22 °F (1937)
Degree Days  
Heating Degree Days 5 6  
Month to date heating degree days 124 164  
Since 1 July heating degree days 489 468  
Cooling Degree Days 0 0  
Month to date cooling degree days 3 0  
Year to date cooling degree days 3 0  
Growing Degree Days 10 (Base 50)    
Moisture  
Dew Point 33 °F    
Average Humidity 46    
Maximum Humidity 71    
Minimum Humidity 21    
Precipitation  
Precipitation 0.00 in 0.01 in 0.77 in (1949)
Month to date precipitation T 0.30  
Year to date precipitation T 0.30  
Sea Level Pressure  
Sea Level Pressure 30.07 in    
Wind  
Wind Speed 11 mph (North)    
Max Wind Speed 25 mph    
Max Gust Speed 33 mph    
Visibility 10 miles    
Events      
T = Trace of Precipitation, MM = Missing Value Source: NWS Daily Summary

Daily Weather History Graph

Daily Weather History Graph

Search for Another Location

Airport or City:

Trip Planner

Search our weather history database for the weather conditions in past years. The results will help you decide how hot, cold, wet, or windy it might be!

Date:

Astronomy

Jan. 24, 2012 Rise Set
Actual Time 7:37 AM MST 6:03 PM MST
Civil Twilight 7:11 AM MST 6:29 PM MST
Nautical Twilight 6:41 AM MST 6:59 PM MST
Astronomical Twilight 6:12 AM MST 7:28 PM MST
Moon 8:16 AM MST (1/24) 7:50 PM MST (1/24)
Length of Visible Light 11h 18m
Length of Day
10h 25m
Waxing Crescent, 3% of the Moon is Illuminated
Jan 24
Waxing Crescent
Jan 30
First Quarter
Feb 7
Full
Feb 14
Last Quarter
Feb 21
New

Hourly Weather History & Observations

Time (MST) Temp. Dew Point Humidity Pressure Visibility Wind Dir Wind Speed Gust Speed Precip Events Conditions
12:55 AM 53.1 °F 42.1 °F 66% 29.92 in 10.0 mi WNW 6.9 mph - N/A   Clear
1:55 AM 52.0 °F 42.1 °F 69% 29.95 in 10.0 mi NE 6.9 mph - N/A   Clear
2:55 AM 51.1 °F 42.1 °F 71% 29.96 in 10.0 mi North 5.8 mph - N/A   Clear
3:55 AM 52.0 °F 39.9 °F 63% 29.97 in 10.0 mi North 3.5 mph - N/A   Clear
4:55 AM 53.1 °F 39.0 °F 59% 29.99 in 10.0 mi North 8.1 mph - N/A   Clear
5:55 AM 52.0 °F 39.0 °F 61% 30.02 in 10.0 mi NNE 4.6 mph - N/A   Clear
6:55 AM 53.1 °F 39.0 °F 59% 30.04 in 10.0 mi North 11.5 mph 19.6 mph N/A   Clear
7:55 AM 53.1 °F 39.0 °F 59% 30.06 in 10.0 mi NNW 9.2 mph - N/A   Scattered Clouds
8:55 AM 57.0 °F 39.9 °F 53% 30.09 in 10.0 mi NNW 12.7 mph - N/A   Mostly Cloudy
9:55 AM 59.0 °F 39.9 °F 49% 30.11 in 10.0 mi NNW 11.5 mph 20.7 mph N/A   Mostly Cloudy
10:55 AM 62.1 °F 39.0 °F 43% 30.12 in 10.0 mi North 17.3 mph 21.9 mph N/A   Scattered Clouds
11:55 AM 64.0 °F 37.0 °F 37% 30.11 in 10.0 mi North 16.1 mph 24.2 mph N/A   Scattered Clouds
12:00 PM - - N/A% - - North - - N/A   Unknown
12:55 PM 66.9 °F 35.1 °F 31% 30.09 in 10.0 mi North 16.1 mph 26.5 mph N/A   Scattered Clouds
1:55 PM 69.1 °F 30.9 °F 24% 30.06 in 10.0 mi North 16.1 mph 24.2 mph N/A   Scattered Clouds
2:55 PM 70.0 °F 28.0 °F 21% 30.05 in 10.0 mi North 19.6 mph 26.5 mph N/A   Clear
3:55 PM 68.0 °F 27.0 °F 21% 30.07 in 10.0 mi North 17.3 mph 27.6 mph N/A   Mostly Cloudy
4:55 PM 68.0 °F 27.0 °F 21% 30.07 in 10.0 mi NNE 16.1 mph 23.0 mph N/A   Clear
5:55 PM 66.9 °F 26.1 °F 21% 30.09 in 10.0 mi NNW 6.9 mph - N/A   Clear
6:55 PM 64.0 °F 25.0 °F 23% 30.12 in 10.0 mi North 9.2 mph - N/A   Clear
7:55 PM 63.0 °F 24.1 °F 23% 30.14 in 10.0 mi NNW 9.2 mph - N/A   Clear
8:55 PM 62.1 °F 24.1 °F 23% 30.16 in 10.0 mi NNW 8.1 mph - N/A   Clear
9:55 PM 62.1 °F 24.1 °F 23% 30.18 in 10.0 mi North 11.5 mph - N/A   Clear
10:55 PM 60.1 °F 24.1 °F 25% 30.20 in 10.0 mi North 4.6 mph - N/A   Clear
11:55 PM 61.0 °F 21.0 °F 21% 30.20 in 10.0 mi North 9.2 mph - N/A   Clear